Hourly Weather Roundup
Issued by NWS Central Illinois

Home | Current Version | Previous Version | Text Only | Print | Product List | Glossary On
Versions: 1 2 3 4 5 6 7 8 9 10 11 12 13 14 15 16 17 18 19 20 21 22 23 24 25 26 27 28 29 30 31 32 33 34 35 36 37 38 39 40 41 42 43 44 45 46 47 48 49 50
000
NZUS43 KILX 241410
HWRILX

Area Weather Roundup
National Weather Service Lincoln IL
800 AM CST SAT FEB 24 2018

NOTE:  "FAIR" indicates few or no clouds below 12,000 feet, with
       no sigificant weather and/or obstructions to visibility.


CITY           SKY/WX    TMP DP  RH WIND       PRES   REMARKS
Bloomington    LGT RAIN  36  35  96 E15       30.10S FOG     WCI  27
Champaign      LGT RAIN  38  37  97 E14       30.09R FOG     WCI  30
Danville       LGT RAIN  38  37  99 E9        30.09S WCI  31
Decatur        LGT RAIN  38  38 100 E17       30.04F FOG     WCI  28
Effingham      HVY RAIN  43  43 100 E17       30.04F
Flora          RAIN      46  45  97 E5        30.06F
Galesburg      MIX PCPN  33  32  96 E9        30.09F WCI  25
Jacksonville   DRIZZLE   36  35  96 NE8       30.05S WCI  29
Lacon          DRIZZLE   33  32  96 E9G16     30.11F WCI  26
Lawrenceville  LGT RAIN  47  46  97 E12       30.05F
Litchfield     CLOUDY    40  40  99 NE6       30.01F
$$


CITY           SKY/WX    TMP DP  RH WIND       PRES   REMARKS
Lincoln        DRIZZLE   38  38 100 E16       30.06F WCI  28
Macomb         LGT RAIN N/A N/A N/A NE10      30.10F
Mattoon        LGT RAIN  41  40  96 E13       30.04F WCI  34
Mt Carmel AP   LGT RAIN  46  45  97 E13       30.05F
Olney-Noble AP RAIN      46  43  92 CALM      30.10R
Paris AP       HVY RAIN  40  40 100 E8        30.09F WCI  34
Peoria         LGT RAIN  35  33  92 E14       30.09F FOG     WCI  26
Pontiac        LGT RAIN  36  35  98 NE9       30.15R WCI  29
Rantoul        DRIZZLE   39  39  99 E12       30.11S WCI  32
Robinson       LGT RAIN  44  44 100 E9        30.09F
Springfield    LGT RAIN  39  37  92 E16       30.04F FOG     WCI  30
Taylorville    CLOUDY    38  38  97 E13       30.02S WCI  31
$$

...REGIONAL REPORTS...


CITY           SKY/WX    TMP DP  RH WIND       PRES   REMARKS
Chicago O`Hare CLOUDY    34  28  79 E10       30.16F WCI  26
Kankakee       CLOUDY    36  33  89 E9        30.15R WCI  29
Moline         MIX PCPN  33  29  85 E14       30.11F FOG     WCI  23
Mount Sterling DRIZZLE   33  32  99 NE6       30.06S WCI  27
Mount Vernon   LGT RAIN  46  45  96 E8        30.03  FOG
Pittsfield     DRIZZLE   36  36  99 NE5       30.06R WCI  32
Quincy         LGT RAIN  33  32  96 NE9       30.06S FOG     WCI  25
Rockford       CLOUDY    31  27  85 NE10      30.16F WCI  22
$$


CITY           SKY/WX    TMP DP  RH WIND       PRES   REMARKS
Burlington     CLOUDY    32  29  88 E12       30.07F FOG     WCI  23
Cedar Rapids   MIX PCPN  30  25  81 E14       30.08S WCI  19
Des Moines     FRZ RAIN  28  24  85 E13       30.01F WCI  17
Kirksville     CLOUDY    32  32 100 E14       30.01F FOG     WCI  22
Ottumwa        MIX PCPN  30  27  88 E14       30.05F FOG     WCI  19
St Louis       LGT RAIN  43  42  97 NE6       30.02R
$$


CITY           SKY/WX    TMP DP  RH WIND       PRES   REMARKS
Terre Haute    HVY RAIN  43  43 100 E9        30.10S FOG
Evansville     HVY RAIN  48  48 100 NE12      30.09R VSB 1
Indianapolis   RAIN      42  41  96 E6        30.13R FOG
Lafayette      LGT RAIN  38  38 100 E12       30.14R FOG     WCI  30
Madison        PTSUNNY   28  23  81 E9        30.18S WCI  19
Milwaukee      CLOUDY    34  27  75 E13       30.19F WCI  25
$$





USA.gov is the U.S. government's official web portal to all federal, state and local government web resources and services.